Hourly Weather Homewood

Today, 13 April, Tuesday

Time Temperature Precipitation Wind Pressure Humidity
00:00 +18°C° 0 mm 1 mps 741 mmHg 73%
01:00 +16°C° 0 mm 1 mps 741 mmHg 72%
02:00 +16°C° 0 mm 1 mps 741 mmHg 72%
03:00 +15°C° 0 mm 1 mps 741 mmHg 72%
04:00 +15°C° 0 mm 1 mps 742 mmHg 74%
05:00 +15°C° 0 mm 1 mps 742 mmHg 75%
06:00 +15°C° 0 mm 1 mps 743 mmHg 76%
07:00 +19°C° 0 mm 1 mps 743 mmHg 68%
08:00 +22°C° 0 mm 1 mps 743 mmHg 60%
09:00 +24°C° 0 mm 1 mps 744 mmHg 52%
10:00 +26°C° 0 mm 2 mps 744 mmHg 45%
11:00 +27°C° 0 mm 2 mps 744 mmHg 38%
12:00 +28°C° 0 mm 3 mps 744 mmHg 31%
13:00 +28°C° 0 mm 2 mps 743 mmHg 32%
14:00 +28°C° 0 mm 2 mps 743 mmHg 33%
15:00 +28°C° 0 mm 1 mps 742 mmHg 34%
16:00 +26°C° 0 mm 1 mps 742 mmHg 44%
17:00 +24°C° 0 mm 1 mps 742 mmHg 53%
18:00 +22°C° 0 mm 1 mps 743 mmHg 62%
19:00 +21°C° 0 mm 1 mps 743 mmHg 64%
20:00 +20°C° 0 mm 1 mps 743 mmHg 65%
21:00 +17°C° 0 mm 0 mps 743 mmHg 66%
22:00 +18°C° 0 mm 1 mps 743 mmHg 69%
23:00 +18°C° 0 mm 1 mps 743 mmHg 72%

Tomorrow, 14 April, Wednesday

Time Temperature Precipitation Wind Pressure Humidity
00:00 +16°C° 0 mm 1 mps 743 mmHg 74%
01:00 +16°C° 0 mm 1 mps 743 mmHg 79%
02:00 +15°C° 0 mm 1 mps 743 mmHg 84%
03:00 +15°C° 0 mm 1 mps 743 mmHg 89%
04:00 +15°C° 0 mm 1 mps 743 mmHg 90%
05:00 +15°C° 0 mm 1 mps 744 mmHg 90%
06:00 +14°C° 0 mm 0 mps 744 mmHg 90%
07:00 +18°C° 0 mm 1 mps 744 mmHg 83%
08:00 +20°C° 0 mm 1 mps 744 mmHg 75%
09:00 +22°C° 0 mm 1 mps 744 mmHg 68%
10:00 +21°C° 0 mm 3 mps 744 mmHg 64%
11:00 +22°C° 0 mm 4 mps 744 mmHg 61%
12:00 +23°C° 0 mm 5 mps 744 mmHg 57%
13:00 +21°C° 0.2 mm 4 mps 743 mmHg 64%
14:00 +19°C° 0.2 mm 4 mps 743 mmHg 71%
15:00 +18°C° 0.2 mm 3 mps 742 mmHg 77%
16:00 +17°C° 0.2 mm 2 mps 741 mmHg 97%
17:00 +18°C° 0.2 mm 1 mps 741 mmHg 96%
18:00 +18°C° 0.2 mm 1 mps 741 mmHg 96%
19:00 +18°C° 1 mm 1 mps 741 mmHg 97%
20:00 +16°C° 1 mm 1 mps 741 mmHg 98%
21:00 +16°C° 1 mm 1 mps 742 mmHg 98%
22:00 +15°C° 0.1 mm 2 mps 742 mmHg 96%
23:00 +14°C° 0.1 mm 2 mps 741 mmHg 95%

Day after tomorrow, 15 April, Thursday

Time Temperature Precipitation Wind Pressure Humidity
00:00 +13°C° 0.1 mm 1 mps 741 mmHg 95%
01:00 +13°C° 0 mm 2 mps 741 mmHg 95%
02:00 +13°C° 0 mm 2 mps 741 mmHg 94%
03:00 +11°C° 0 mm 3 mps 741 mmHg 94%
04:00 +15°C° 0 mm 1 mps 741 mmHg 97%
05:00 +14°C° 0 mm 2 mps 741 mmHg 95%
06:00 +12°C° 0 mm 2 mps 741 mmHg 94%
07:00 +12°C° 0 mm 2 mps 741 mmHg 90%
08:00 +12°C° 0 mm 3 mps 741 mmHg 87%
09:00 +12°C° 0 mm 3 mps 742 mmHg 83%
10:00 +14°C° 0 mm 3 mps 741 mmHg 72%
11:00 +18°C° 0 mm 3 mps 741 mmHg 60%
12:00 +20°C° 0 mm 4 mps 741 mmHg 48%
13:00 +20°C° 0 mm 4 mps 741 mmHg 48%
14:00 +20°C° 0 mm 4 mps 740 mmHg 47%
15:00 +20°C° 0 mm 4 mps 740 mmHg 47%
16:00 +18°C° 0 mm 3 mps 740 mmHg 54%
17:00 +17°C° 0 mm 3 mps 740 mmHg 60%
18:00 +14°C° 0 mm 3 mps 741 mmHg 67%
19:00 +14°C° 0 mm 2 mps 741 mmHg 68%
20:00 +13°C° 0 mm 2 mps 741 mmHg 68%
21:00 +13°C° 0 mm 2 mps 741 mmHg 69%
22:00 +12°C° 0 mm 2 mps 741 mmHg 69%
23:00 +12°C° 0 mm 2 mps 741 mmHg 70%

16 April, Friday

Time Temperature Precipitation Wind Pressure Humidity
00:00 +10°C° 0 mm 2 mps 741 mmHg 70%
01:00 +9°C° 0 mm 2 mps 740 mmHg 71%
02:00 +9°C° 0 mm 2 mps 740 mmHg 72%
03:00 +8°C° 0 mm 2 mps 740 mmHg 73%
04:00 +8°C° 0 mm 2 mps 740 mmHg 73%
05:00 +9°C° 0 mm 1 mps 740 mmHg 72%
06:00 +9°C° 0 mm 1 mps 741 mmHg 72%
07:00 +11°C° 0 mm 1 mps 741 mmHg 65%
08:00 +12°C° 0 mm 1 mps 741 mmHg 58%
09:00 +14°C° 0 mm 1 mps 741 mmHg 52%
10:00 +15°C° 0 mm 1 mps 741 mmHg 50%
11:00 +15°C° 0 mm 1 mps 740 mmHg 48%
12:00 +16°C° 0 mm 1 mps 740 mmHg 46%
13:00 +16°C° 0 mm 1 mps 739 mmHg 45%
14:00 +16°C° 0 mm 0 mps 739 mmHg 44%
15:00 +16°C° 0 mm 0 mps 738 mmHg 43%
16:00 +15°C° 0 mm 0 mps 738 mmHg 49%
17:00 +15°C° 0 mm 0 mps 738 mmHg 55%
18:00 +14°C° 0 mm 0 mps 738 mmHg 61%
19:00 +13°C° 0 mm 0 mps 738 mmHg 61%
20:00 +14°C° 0 mm 1 mps 738 mmHg 61%
21:00 +14°C° 0 mm 1 mps 738 mmHg 61%
22:00 +14°C° 0 mm 1 mps 738 mmHg 64%
23:00 +13°C° 0 mm 2 mps 737 mmHg 67%

17 April, Saturday

Time Temperature Precipitation Wind Pressure Humidity
00:00 +12°C° 0 mm 3 mps 737 mmHg 69%
01:00 +13°C° 0 mm 2 mps 736 mmHg 75%
02:00 +13°C° 0 mm 2 mps 736 mmHg 81%
03:00 +12°C° 0 mm 1 mps 736 mmHg 87%
04:00 +13°C° 1.3 mm 1 mps 736 mmHg 91%
05:00 +13°C° 1.3 mm 1 mps 736 mmHg 95%
06:00 +13°C° 1.3 mm 1 mps 736 mmHg 98%
07:00 +13°C° 0.6 mm 1 mps 736 mmHg 98%
08:00 +14°C° 0.6 mm 1 mps 736 mmHg 98%
09:00 +15°C° 0.6 mm 1 mps 737 mmHg 98%
10:00 +15°C° 0.1 mm 2 mps 737 mmHg 97%
11:00 +16°C° 0.1 mm 2 mps 737 mmHg 96%
12:00 +16°C° 0.1 mm 2 mps 737 mmHg 95%
13:00 +16°C° 0.1 mm 2 mps 737 mmHg 93%
14:00 +17°C° 0.1 mm 2 mps 737 mmHg 90%
15:00 +17°C° 0.1 mm 3 mps 737 mmHg 87%
16:00 +16°C° 0 mm 3 mps 738 mmHg 86%
17:00 +16°C° 0 mm 3 mps 739 mmHg 84%
18:00 +14°C° 0 mm 3 mps 740 mmHg 82%
19:00 +13°C° 0 mm 3 mps 740 mmHg 84%
20:00 +13°C° 0 mm 2 mps 740 mmHg 86%
21:00 +13°C° 0 mm 2 mps 741 mmHg 88%
22:00 +12°C° 0 mm 2 mps 741 mmHg 89%
23:00 +12°C° 0 mm 2 mps 741 mmHg 91%

18 April, Sunday

Time Temperature Precipitation Wind Pressure Humidity
00:00 +10°C° 0 mm 2 mps 741 mmHg 92%
01:00 +10°C° 0 mm 2 mps 741 mmHg 93%
02:00 +9°C° 0 mm 2 mps 741 mmHg 95%
03:00 +8°C° 0 mm 2 mps 741 mmHg 97%
04:00 +8°C° 0 mm 2 mps 742 mmHg 96%
05:00 +8°C° 0 mm 2 mps 742 mmHg 95%
06:00 +8°C° 0 mm 2 mps 742 mmHg 94%
07:00 +9°C° 0 mm 2 mps 743 mmHg 83%
08:00 +11°C° 0 mm 3 mps 744 mmHg 72%
09:00 +13°C° 0 mm 3 mps 744 mmHg 62%
10:00 +14°C° 0 mm 3 mps 744 mmHg 57%
11:00 +16°C° 0 mm 3 mps 743 mmHg 52%
12:00 +18°C° 0 mm 4 mps 743 mmHg 47%
13:00 +18°C° 0 mm 4 mps 743 mmHg 47%
14:00 +18°C° 0 mm 4 mps 742 mmHg 47%
15:00 +17°C° 0 mm 4 mps 742 mmHg 47%
16:00 +16°C° 0 mm 3 mps 742 mmHg 54%
17:00 +14°C° 0 mm 3 mps 743 mmHg 60%
18:00 +13°C° 0 mm 2 mps 743 mmHg 67%
19:00 +12°C° 0 mm 2 mps 743 mmHg 70%
20:00 +10°C° 0 mm 2 mps 743 mmHg 73%
21:00 +10°C° 0 mm 1 mps 744 mmHg 76%
22:00 +9°C° 0 mm 1 mps 744 mmHg 79%
23:00 +9°C° 0 mm 1 mps 744 mmHg 82%
Show more